Location: Home
(42.5358°N, 72.7383°W)
Time: 07:54:57
(UTC-05:00)

Envisat - Pass Details

Date: 26 October 2021
Orbit: 764 x 766 km, 98.2° (Epoch: 07 December)

Event Time Altitude Azimuth Distance (km) Brightness Sun altitude
Rises 18:40:56 0° 222° (SW) 3,221 7.1 -9.7°
Reaches altitude 10° 18:45:26 10° 260° (W) 2,303 7.1 -10.5°
Maximum altitude 18:46:33 11° 273° (W) 2,259 6.9 -10.7°
Drops below altitude 10° 18:47:41 10° 286° (WNW) 2,307 6.7 -10.9°
Sets 18:52:14 0° 324° (NW) 3,241 6.7 -11.8°
